Вернуться в каталог

YAOGAN-40 02B

АктивенВоенныеPO
NORAD 63919·PAYLOAD·🇨🇳 China

Запущен May 11, 2025 с Taiyuan Satellite Launch Center

Loading…

Ближайшие Пролёты (ближайшие 24 часа)

TLE

СвежийSource: Space-Track

Эпоха: Sep 14, 2026, 13:01 UTC

1 63919U 25096B   26257.54252852  .00000138  00000-0  64377-4 0  9998
2 63919  85.9976 147.9243 0001652  83.5700 276.5671 14.12461010 69189

Отслеживайте YAOGAN-40 02B в реальном времени с AllMySat

Download on the App Store